TimeMDT,TemperatureF,Dew PointF,Humidity,Sea Level PressureIn,VisibilityMPH,Wind Direction,Wind SpeedMPH,Gust SpeedMPH,PrecipitationIn,Events,Conditions,WindDirDegrees,DateUTC
12:53 AM,72.0,48.0,43,29.84,10.0,West,17.3,-,N/A,,Clear,260,2013-08-23 06:53:00
1:53 AM,70.0,46.9,44,29.85,10.0,West,13.8,-,N/A,,Clear,260,2013-08-23 07:53:00
2:53 AM,68.0,48.0,49,29.85,10.0,Calm,Calm,-,N/A,,Mostly Cloudy,0,2013-08-23 08:53:00
3:53 AM,66.0,50.0,56,29.84,9.0,NW,5.8,-,0.00,Rain,Light Rain,310,2013-08-23 09:53:00
4:53 AM,66.0,50.0,56,29.83,10.0,WNW,6.9,-,0.00,,Clear,290,2013-08-23 10:53:00
5:53 AM,64.9,50.0,58,29.83,10.0,ESE,4.6,-,N/A,,Clear,110,2013-08-23 11:53:00
6:53 AM,64.0,48.9,58,29.85,10.0,Calm,Calm,-,N/A,,Clear,0,2013-08-23 12:53:00
7:53 AM,61.0,48.9,64,29.86,10.0,NW,10.4,-,N/A,,Clear,310,2013-08-23 13:53:00
8:53 AM,69.1,48.0,47,29.84,10.0,NNW,15.0,20.7,N/A,,Clear,330,2013-08-23 14:53:00
9:53 AM,80.1,46.9,31,29.81,10.0,Variable,6.9,-,N/A,,Clear,0,2013-08-23 15:53:00
10:53 AM,87.1,43.0,21,29.78,10.0,WSW,13.8,18.4,N/A,,Clear,250,2013-08-23 16:53:00
11:53 AM,90.0,44.1,20,29.76,10.0,SW,20.7,-,N/A,,Clear,230,2013-08-23 17:53:00
12:53 PM,87.1,44.1,22,29.74,10.0,West,13.8,-,N/A,,Clear,270,2013-08-23 18:53:00
1:10 PM,86.0,44.6,23,29.92,10.0,West,15.0,24.2,N/A,Thunderstorm,Mostly Cloudy,280,2013-08-23 19:10:00
1:42 PM,84.2,46.4,27,29.92,10.0,WNW,26.5,32.2,N/A,,Overcast,300,2013-08-23 19:42:00
1:53 PM,88.0,45.0,22,29.73,10.0,NW,21.9,29.9,N/A,,Mostly Cloudy,320,2013-08-23 19:53:00
2:53 PM,82.0,48.0,30,29.76,10.0,SSW,8.1,-,0.00,,Mostly Cloudy,210,2013-08-23 20:53:00
3:53 PM,84.0,42.1,23,29.74,10.0,Calm,Calm,-,N/A,,Mostly Cloudy,0,2013-08-23 21:53:00
4:08 PM,82.4,42.8,25,29.91,10.0,SSE,10.4,-,N/A,Thunderstorm,Mostly Cloudy,150,2013-08-23 22:08:00
4:53 PM,66.9,52.0,59,29.88,9.0,West,12.7,23.0,0.01,Rain-Thunderstorm,Light Thunderstorms and Rain,270,2013-08-23 22:53:00
5:08 PM,68.0,53.6,60,30.00,10.0,Variable,5.8,-,0.00,,Overcast,0,2013-08-23 23:08:00
5:34 PM,64.4,51.8,64,30.01,7.0,WNW,10.4,-,0.01,Rain-Thunderstorm,Rain,300,2013-08-23 23:34:00
5:49 PM,64.4,53.6,68,29.98,9.0,Calm,Calm,-,0.02,Rain,Light Rain,0,2013-08-23 23:49:00
5:53 PM,64.9,53.1,65,29.87,10.0,SSW,9.2,-,0.02,Rain,Light Rain,210,2013-08-23 23:53:00
6:53 PM,66.0,53.1,63,29.84,10.0,WSW,9.2,-,0.00,,Mostly Cloudy,240,2013-08-24 00:53:00
7:53 PM,64.9,55.0,70,29.88,10.0,WSW,18.4,-,N/A,,Mostly Cloudy,250,2013-08-24 01:53:00
8:03 PM,64.4,55.4,73,29.98,7.0,WSW,12.7,-,0.02,Rain-Thunderstorm,Thunderstorms and Rain,250,2013-08-24 02:03:00
8:22 PM,62.6,55.4,77,29.98,10.0,West,8.1,-,0.07,Rain,Light Rain,280,2013-08-24 02:22:00
8:53 PM,63.0,55.9,78,29.86,10.0,WSW,5.8,-,0.07,,Scattered Clouds,250,2013-08-24 02:53:00
9:53 PM,66.0,54.0,65,29.82,10.0,South,10.4,16.1,0.00,Rain,Light Rain,170,2013-08-24 03:53:00
10:53 PM,66.0,52.0,60,29.78,10.0,NW,15.0,20.7,0.00,,Mostly Cloudy,310,2013-08-24 04:53:00
11:53 PM,66.9,51.1,57,29.77,10.0,WSW,12.7,19.6,N/A,,Overcast,240,2013-08-24 05:53:00